sat.trackr.live / text

‹ back to catalog

STARLINK-5271

NORAD 54194 · 2022-141AP

PAYLOAD ACTIVE UNKNOWN

§ Identity

Operator
Country
US
Launch date
2022-10-28
Launch site
AFWTR
Launch vehicle
Mass (kg)
RCS (m²)

Purposes: comms

External: N2YO · Heavens-Above · Gunter

§ Orbital elements

Epoch: 2026-05-24T21:36:36.542016Z

Period
95.44 min
Inclination
53.2135°
Eccentricity
0.0001541
Mean motion
15.08839859 rev/d
Perigee alt
538.7 km
Apogee alt
540.8 km
Semi-major
6,917.9 km
B*
2.9031e-5
RAAN
11.9604°
Arg perigee
95.7274°
Mean anomaly
264.3894°
Rev number
19,750

§ Raw data

STARLINK-52711 54194U 22141AP  26144.90042294  .00000174  00000+0  29031-4 0  99902 54194  53.2135  11.9604 0001541  95.7274 264.3894 15.08839859197504

JSON: /api/v1/satellites/54194 · /tle

For live sub-satellite position, see the globe view (requires WebGL).

§ Visibility from observer

Set your observer location to see the next 7 days of passes ≥ 10°. The values pass through the URL so the page stays shareable.

No JS? Fill the form by hand. The geolocation button needs JavaScript.